NOAA 16 DEB, 41298

Orbit data source: Space-Track

NOAA 16 DEB, 41298 is space debris in SSO originally from a launch on Thu, 21 Sep 2000 UTC launched from the Air Force Western Test Range (AFWTR). Debris objects in space refer to the collection of defunct objects orbiting the Earth. Examples of debris include non-operational satellites, rocket bodies, and fragments generated from explosions, collisions, or faulty payload assembly.

Loading next visibility...
Identifier
41298, 2000-055HA
Orbit
SSO
Country
Flag of USUS
Related business
Manufacturer
Unknown
Mission
Spacecraft
Bus & Motor
Unknown
Mass
Unknown
Launch date (UTC)
2000-09-21 (26 years ago)
Launch vehicle
Unknown
Launch site
Air Force Western Test Range (AFWTR)
Object type
Payload
Rocket body
Debris
Shape & HBR
Unknown shape, 0.1 m
Radar Cross Section
Small (<0.1 m²)

Expand to show TLE details & history
Last TLE update: 21 hours ago

TLE from 21 hours ago
0 NOAA 16 DEB
1 41298U 00055HA  26235.65127688  .00002494  00000-0  10099-2 0  9995
2 41298  98.7091 311.4071 0049634 187.7021 172.3404 14.27986165550302
Epoch: 2026-08-23T15:37Z
TLE epoch observation values (Epoch: 2026-08-23T15:37:50.322Z)
Latitude
0.00007°
Longitude
105.00314°
Altitude
836.708 km
Speed
7.416 km/s
True Right ascension
20h 45m 37s
True Declination
0° 00' 00"
Sunlit
Object was in full shadow at epoch
Visualization orbit readout
Latitude
Unknown
Longitude
Unknown
Altitude
Unknown
Speed
Unknown
Apparent Right ascension
Unknown
Apparent Declination
Unknown
Sunlit
N/A
Visualization observer readout
Local Sidereal Time
03:49:17
Azimuth
Unknown
Elevation
Unknown
Doppler factor
Unknown
Orbital elements
Apogee altitude
831.224 km
Perigee altitude
760.012 km
Semi-major axis
7,173.755 km
Eccentricity
0.00496
Inclination
98.7091°
RAAN
311.4071°
Arg. of periapsis
187.7021°
True anomaly
172.41575°
Mean anomaly
172.3404°
Eccentric anomaly
172.37812°
Mean motion
3.5721 °/min
Orbital period
100.78 mins
BSTAR
0.0010099
Loading maneuver chart data...
Computing Atmospheric mass density...
Loading historical data...
Loading historical data...
Loading historical data...
Loading historical data...
Loading historical data...
Loading historical data...
Loading historical data...

Documentation

Showing up to 5 results
|